Miscellaneous Local Product
Issued by NWS North Platte, NE

Home | Current Version | Previous Version | Text Only | Print | Product List | Glossary On
Versions: 1 2 3 4 5 6 7 8 9 10 11 12 13 14 15 16 17 18 19 20 21 22 23 24 25 26 27 28 29 30 31 32 33 34 35 36 37 38 39 40 41 42 43 44 45 46 47 48 49 50
000
AXUS43 KLBF 290310
MISLBF


WESTERN AND NORTH CENTRAL NEBRASKA HOURLY WEATHER ROUNDUP
NATIONAL WEATHER SERVICE NORTH PLATTE NE
1000 PM CDT TUE MAR 28 2017

NOTE: "FAIR" INDICATES FEW OR NO CLOUDS BELOW 12,000 FEET WITH NO
SIGNIFICANT WEATHER AND/OR OBSTRUCTIONS TO VISIBILITY.

NOTE: STATIONS NOT REPORTING VARIABLES SUCH AS SKY/WEATHER OR
PRESSURE ARE PROVIDED BY RAWS AND APRS NETWORKS AND ARE NOT UNDER
NATIONAL WEATHER SERVICE QUALITY CONTROL.

...OBSERVATIONS IN AND NEAR THE EASTERN PANHANDLE OF NEBRASKA...

CITY           SKY/WX    TMP DP  RH WIND       PRES   REMARKS
PINE RIDGE     LGT RAIN  43  41  93 CALM      30.13R
CHADRON        LGT RAIN  42  38  85 E3        30.13R
ALLIANCE       LGT RAIN  39  38  96 E7        30.10R WCI  34
SIDNEY         LGT RAIN  39  37  92 E6        30.08R WCI  35
CRESCENT LAKE    N/A     39  39 100 E6          N/A  WCI  35
$$

...OBSERVATIONS IN NORTHERN NEBRASKA AND FAR SOUTHERN SOUTH DAKOTA...

CITY           SKY/WX    TMP DP  RH WIND       PRES   REMARKS
WINNER         CLOUDY    45  42  89 SW3       30.16S
VALENTINE      CLOUDY    42  39  89 NE9       30.13S
THEDFORD       DRIZZLE   44  43  97 NE7       30.09S
AINSWORTH      DRIZZLE   43  43  99 NE12      30.12S
O`NEILL        CLOUDY    48  42  79 N8        30.10F
ORD            CLOUDY    46  40  79 E3        30.07F
BROKEN BOW     CLOUDY    45  40  82 E5        30.07S
VALENTINE NWR    N/A     42  41  97 NE12        N/A
HALSEY           N/A     43  43 100 CALM        N/A
BUTTE            N/A     47  40  78 NE5         N/A
CHAMBERS         N/A     49  41  73 N3          N/A
EWING            N/A     49  43  81 CALM        N/A
$$

...OBSERVATIONS IN SOUTHWEST NEBRASKA AND FAR NORTHEAST COLORADO...

CITY           SKY/WX    TMP DP  RH WIND       PRES   REMARKS
HOLYOKE        DRIZZLE   41  39  93 E5        30.05R
IMPERIAL       LGT RAIN  43  41  93 E12       30.05R FOG
OGALLALA       LGT RAIN  43  41  93 E9        30.07R
NORTH PLATTE   LGT RAIN  44  41  89 NE7       30.07R FOG
MCCOOK         CLOUDY    44  43  96 NE17      30.02R FOG
LEXINGTON      RAIN      43  41  91 E9        30.06R
STAPLETON        N/A     41  40  95 NE3         N/A
GOTHENBURG       N/A     43  40  89 NE5         N/A
CALLAWAY         N/A     42  41  95 NE7         N/A
$$

...OBSERVATIONS IN CENTRAL LINCOLN COUNTY AREA...

CITY           SKY/WX    TMP DP  RH WIND       PRES   REMARKS
N.P. AIRPORT   LGT RAIN  44  41  89 NE7       30.07R FOG
N.P. DOWNTOWN    N/A     42  41  95 NE8         N/A
N.P. SOUTHEAST   N/A     42  40  93 NE5         N/A
N.P. HILLCREST   N/A     42  41  95 E12         N/A
$$

...SOME OBSERVATIONS FROM AROUND THE REGION...

CITY           SKY/WX    TMP DP  RH WIND       PRES   REMARKS
DENVER         LGT RAIN  41  39  93 NW18      29.97R VSB 1/4
LIMON          LGT RAIN  39  39 100 E7        29.97R WCI  34
ASPEN          CLOUDY    37  33  85 NW8G20    29.98R WCI  31
LARAMIE        FLURRIES  32  32 100 N10       30.08R WCI  24
CASPER         CLOUDY    39  34  82 NE9       30.14R WCI  33
CHEYENNE       CLOUDY    35  34  96 N12       30.07R WCI  27
SCOTTSBLUFF    LGT RAIN  41  38  89 E9        30.11R
GRAND ISLAND   LGT RAIN  43  43 100 NE9       30.08R FOG
OMAHA          CLOUDY    50  41  71 NE15      30.08F
SIOUX FALLS    CLOUDY    45  37  73 NE6       30.15R
PIERRE         CLOUDY    47  44  90 W9        30.16R
RAPID CITY     LGT RAIN  43  41  93 SE12      30.13R
BISMARCK       CLOUDY    47  38  71 SE8       30.15R
KANSAS CITY    CLOUDY    53  49  86 E16       30.02R
HILL CITY      CLOUDY    45  44  97 NE17G26   29.99R FOG
WICHITA        TSTM      51  51 100 N15       29.88S FOG
DODGE CITY     CLOUDY    46  45  96 E22       29.86R
OKLAHOMA CITY  TSTM      56  54  93 VRB3G17   29.77R VSB 3/4
DALLAS         CLOUDY    79  61  53 SE16G25   29.68S
AMARILLO       LGT RAIN  45  45 100 N21G32    29.77R
$$




USA.gov is the U.S. government's official web portal to all federal, state and local government web resources and services.